Regional Weather Roundup
Issued by NWS

Home | Current Version | Previous Version | Text Only | Print | Product List | Glossary On
Versions: 1 2 3 4 5 6 7 8 9 10 11 12 13 14 15 16 17 18 19 20 21 22 23 24 25 26 27 28 29 30 31 32 33 34 35 36 37 38 39 40 41 42 43 44 45 46 47 48 49 50
000
ASUS44 KOUN 261400
RWROK

WEATHER ROUNDUP FOR OKLAHOMA
NATIONAL WEATHER SERVICE NORMAN OK
900 AM CDT WED APR 26 2017

NOTE: "FAIR" INDICATES FEW OR NO CLOUDS BELOW 12,000 FEET WITH NO
      SIGNIFICANT WEATHER AND/OR OBSTRUCTIONS TO VISIBILITY.

OKZ001>007-009>012-014-015-017-261500-
NORTHWEST OKLAHOMA AND THE PANHANDLE

CITY           SKY/WX    TMP DP  RH WIND       PRES   REMARKS
GAGE           CLOUDY    42  35  76 N23G31    29.74R WCI  33
GUYMON         CLOUDY    41  35  79 N21G28    29.80S WCI  32
$$

OKZ016-021>023-033>039-044-045-261500-
SOUTHWEST OKLAHOMA

CITY           SKY/WX    TMP DP  RH WIND       PRES   REMARKS
LAWTON/REGL    LGT RAIN  49  45  86 N28G38    29.59R
LAWTON/FT SILL CLOUDY    48  45  90 N24G33    29.58R
FREDERICK      CLOUDY    51  44  77 N24G32    29.63R
CLINTON        CLOUDY    44  39  82 N21G35    29.69R
HOBART         CLOUDY    46  42  86 N26G36    29.69R
ALTUS AFB      CLOUDY    48  42  79 N18G28    29.68R
$$

OKZ018>020-024>031-261500-
CENTRAL OKLAHOMA

CITY           SKY/WX    TMP DP  RH WIND       PRES   REMARKS
OKLAHOMA CITY  LGT RAIN  45  43  93 N25G35    29.60R
OKC/WILEY POST LGT RAIN  46  44  93 N20G30    29.62R
OKC/TINKER AFB CLOUDY    47  42  84 N25G36    29.58F
STILLWATER     CLOUDY    45  41  86 N15G29    29.60F
GUTHRIE        LGT RAIN  46  43  89 N12G20    29.63S
$$

OKZ008-013-054>072-261500-
NORTHEAST OKLAHOMA

CITY           SKY/WX    TMP DP  RH WIND       PRES   REMARKS
TULSA          LGT RAIN  49  46  90 N14       29.58R
TULSA/JONES    LGT RAIN  49  44  83 N12G26    29.58S
PONCA CITY     LGT RAIN  45  39  79 N12       29.67R
BARTLESVILLE   LGT RAIN  47  40  76 VRB6      29.64R
MUSKOGEE       LGT RAIN  51  50  96 N22G31    29.54R FOG
$$

OKZ032-040>043-046>053-073>077-261500-
SOUTH CENTRAL/SOUTHEAST OKLAHOMA

CITY           SKY/WX    TMP DP  RH WIND       PRES   REMARKS
MCALESTER      CLOUDY    54  53  97 N13       29.57R FOG
$$




USA.gov is the U.S. government's official web portal to all federal, state and local government web resources and services.